EW5139 Weather Reports


time (UTC)temp
C
wind
direction
speed
KPH
gust
KPH
rain 1hr
cm
rain 24hr
cm
rain mn
cm
humidity
%
barometer
mb
20260507140404 10 341 4.8 12.9 0.00 0.00 0.00 54 1016.4
20260507135904 10 333 3.2 14.5 0.00 0.00 0.00 56 1016.3
20260507135403 10 349 3.2 8.0 0.00 0.00 0.00 56 1016.4
20260507134908 10 322 3.2 8.0 0.00 0.00 0.00 55 1016.2
20260507134407 10 312 3.2 9.7 0.00 0.00 0.00 57 1016.3
20260507133907 10 342 3.2 12.9 0.00 0.00 0.00 57 1016.2
20260507133408 9 343 4.8 12.9 0.00 0.00 0.00 58 1016.3
20260507132908 9 322 3.2 11.3 0.00 0.00 0.00 59 1016.2
20260507132408 9 310 3.2 11.3 0.00 0.00 0.00 60 1016.2
20260507131908 9 4 1.6 11.3 0.00 0.00 0.00 60 1016.2
20260507131408 9 338 1.6 11.3 0.00 0.00 0.00 62 1016.3
20260507130907 9 331 4.8 11.3 0.00 0.00 0.00 63 1016.3
20260507130408 8 322 1.6 8.0 0.00 0.00 0.00 65 1016.3
20260507125907 8 343 4.8 11.3 0.00 0.00 0.00 65 1016.3
20260507125407 8 342 3.2 12.9 0.00 0.00 0.00 67 1016.2
20260507124908 8 285 0.0 3.2 0.00 0.00 0.00 72 1016.3
20260507124408 8 309 1.6 4.8 0.00 0.00 0.00 72 1016.3
20260507123908 7 322 1.6 3.2 0.00 0.00 0.00 74 1016.4
20260507122908 7 283 1.6 4.8 0.00 0.00 0.00 76 1016.4
20260507122408 7 353 0.0 3.2 0.00 0.00 0.00 78 1016.4
20260507121907 6 335 0.0 1.6 0.00 0.00 0.00 79 1016.4
20260507121407 6 341 0.0 3.2 0.00 0.00 0.00 80 1016.4
20260507120907 6 312 0.0 1.6 0.00 0.00 0.00 82 1016.4
20260507120407 6 288 0.0 1.6 0.00 0.00 0.00 83 1016.3
20260507114908 5 332 0.0 3.2 0.00 0.00 0.00 85 1016.3
20260507114407 5 346 0.0 3.2 0.00 0.00 0.00 86 1016.3
20260507113407 5 333 0.0 1.6 0.00 0.00 0.00 88 1016.4
20260507112907 4 321 0.0 1.6 0.00 0.00 0.00 89 1016.4
20260507112407 4 324 0.0 1.6 0.00 0.00 0.00 90 1016.3
20260507111907 3 277 0.0 1.6 0.00 0.00 0.00 91 1016.2
20260507111408 3 318 0.0 1.6 0.00 0.00 0.00 91 1016.2
20260507110907 3 356 0.0 0.0 0.00 0.00 0.00 92 1016.1
20260507110407 3 356 0.0 1.6 0.00 0.00 0.00 92 1016.0
20260507105407 3 294 0.0 0.0 0.00 0.00 0.00 93 1015.9
20260507104407 3 294 0.0 0.0 0.00 0.00 0.00 93 1015.8
20260507103908 3 294 0.0 0.0 0.00 0.00 0.00 93 1015.9
20260507103407 3 294 0.0 0.0 0.00 0.00 0.00 93 1015.8
20260507102907 3 294 0.0 0.0 0.00 0.00 0.00 93 1015.8
20260507102406 3 294 0.0 0.0 0.00 0.00 0.00 94 1015.9
20260507101907 3 294 0.0 0.0 0.00 0.00 0.00 94 1015.8
20260507101407 3 293 0.0 0.0 0.00 0.00 0.00 94 1015.8
20260507100907 3 293 0.0 0.0 0.00 0.00 0.00 94 1015.7
20260507100407 3 293 0.0 0.0 0.00 0.00 0.00 93 1015.7
20260507095907 3 293 0.0 0.0 0.00 0.00 0.00 93 1015.7
20260507095407 3 293 0.0 0.0 0.00 0.00 0.00 93 1015.7
20260507094906 3 293 0.0 0.0 0.00 0.00 0.00 93 1015.7
20260507094406 3 293 0.0 0.0 0.00 0.00 0.00 93 1015.8
20260507093907 3 293 0.0 0.0 0.00 0.00 0.00 93 1015.8
20260507093407 3 293 0.0 0.0 0.00 0.00 0.00 93 1015.7
20260507092906 3 293 0.0 0.0 0.00 0.00 0.00 93 1015.6
20260507092407 4 293 0.0 0.0 0.00 0.00 0.00 93 1015.5
20260507091907 4 293 0.0 0.0 0.00 0.00 0.00 93 1015.5
20260507091407 4 293 0.0 0.0 0.00 0.00 0.00 92 1015.4
20260507090907 4 293 0.0 0.0 0.00 0.00 0.00 92 1015.3
20260507090407 4 293 0.0 0.0 0.00 0.00 0.00 92 1015.3
20260507085907 4 293 0.0 0.0 0.00 0.00 0.00 91 1015.3
20260507084407 5 293 0.0 0.0 0.00 0.00 0.00 91 1015.2
20260507083907 5 293 0.0 0.0 0.00 0.00 0.00 91 1015.3
20260507083407 5 293 0.0 0.0 0.00 0.00 0.00 91 1015.2
20260507082906 5 293 0.0 1.6 0.00 0.00 0.00 90 1015.2
20260507082407 5 282 0.0 0.0 0.00 0.00 0.00 90 1015.2
20260507081906 5 282 0.0 0.0 0.00 0.00 0.00 89 1015.2
20260507081407 5 282 0.0 0.0 0.00 0.00 0.00 89 1015.2
20260507080407 5 282 0.0 1.6 0.00 0.03 0.00 90 1015.1
20260507075906 5 347 0.0 0.0 0.00 0.03 0.00 90 1015.1
20260507075406 5 286 0.0 0.0 0.00 0.03 0.00 90 1015.1
20260507074407 5 271 0.0 0.0 0.00 0.08 0.00 89 1015.1
20260507073907 6 271 0.0 0.0 0.00 0.08 0.00 89 1015.2
20260507073407 6 271 0.0 0.0 0.00 0.13 0.00 89 1015.1
20260507072907 6 271 0.0 0.0 0.00 0.15 0.00 90 1015.1
20260507071906 6 271 0.0 0.0 0.00 0.18 0.00 90 1015.1
20260507071407 6 271 0.0 0.0 0.00 0.18 0.00 90 1015.1
20260507070906 6 271 0.0 0.0 0.00 0.23 0.00 91 1015.2
20260507070406 6 271 0.0 0.0 0.00 0.28 0.00 91 1015.1
20260507065907 6 271 0.0 0.0 0.00 0.33 0.00 91 1015.1
20260507065407 6 271 0.0 0.0 0.00 0.38 0.00 91 1015.2
20260507064907 6 271 0.0 0.0 0.00 0.43 0.00 91 1015.2
20260507064406 6 271 0.0 0.0 0.00 0.43 0.00 91 1015.3
20260507063907 6 271 0.0 0.0 0.00 0.46 0.00 91 1015.4
20260507063406 6 271 0.0 0.0 0.00 0.46 0.00 91 1015.4
20260507062406 6 271 0.0 0.0 0.00 0.46 0.00 91 1015.4
20260507061906 6 271 0.0 0.0 0.00 0.46 0.00 91 1015.3
20260507061406 6 271 0.0 0.0 0.00 0.48 0.00 91 1015.3
20260507060906 6 271 0.0 0.0 0.00 0.48 0.00 92 1015.3
20260507060406 6 271 0.0 0.0 0.00 0.51 0.00 92 1015.4
20260507055906 6 271 0.0 0.0 0.00 0.56 0.00 92 1015.4
20260507055407 6 271 0.0 0.0 0.00 0.58 0.00 92 1015.4
20260507054406 7 271 0.0 0.0 0.00 0.61 0.00 91 1015.5
20260507053907 7 271 0.0 0.0 0.00 0.64 0.00 91 1015.4
20260507053406 7 271 0.0 0.0 0.00 0.66 0.00 91 1015.5
20260507052906 7 271 0.0 0.0 0.00 0.71 0.00 91 1015.4
20260507052407 7 12 0.0 0.0 0.00 0.71 0.00 91 1015.3
20260507051906 7 12 0.0 1.6 0.00 0.76 0.00 91 1015.3
20260507051406 7 12 0.0 1.6 0.00 0.79 0.00 90 1015.4
20260507050406 7 12 0.0 0.0 0.00 0.97 0.00 90 1015.5
20260507045906 7 12 0.0 0.0 0.00 0.99 0.00 89 1015.6
20260507045406 7 12 0.0 0.0 0.00 1.07 0.00 88 1015.6
20260507044906 7 12 0.0 0.0 0.00 1.14 0.00 87 1015.6
20260507044406 7 12 0.0 0.0 0.00 1.27 0.00 87 1015.6
20260507043907 7 12 0.0 0.0 0.00 1.30 0.00 86 1015.5
20260507042406 7 12 0.0 0.0 0.00 1.40 0.00 84 1015.3
20260507041406 7 12 0.0 0.0 0.00 1.47 0.00 83 1015.4
20260507040906 7 12 0.0 0.0 0.00 1.57 0.00 82 1015.4
20260507040406 8 12 0.0 0.0 0.00 1.68 0.00 81 1015.4
20260507035906 8 12 0.0 0.0 0.00 1.73 1.73 81 1015.4
20260507035406 8 12 0.0 0.0 0.00 1.75 1.73 81 1015.3
20260507034906 8 12 0.0 0.0 0.00 1.78 1.73 80 1015.4
20260507034406 8 12 0.0 0.0 0.00 1.80 1.73 81 1015.4
20260507033906 8 12 0.0 0.0 0.00 1.83 1.73 82 1015.4
20260507033406 8 12 0.0 0.0 0.00 1.83 1.73 81 1015.4
20260507032406 8 12 0.0 0.0 0.00 1.83 1.73 81 1015.3
20260507031906 8 12 0.0 0.0 0.00 1.83 1.73 81 1015.4
20260507030907 8 12 0.0 0.0 0.00 1.83 1.73 81 1015.4
20260507030406 8 12 0.0 0.0 0.00 1.83 1.73 81 1015.5
20260507025906 8 12 0.0 0.0 0.00 1.88 1.73 80 1015.5
20260507025405 8 12 0.0 0.0 0.00 1.88 1.73 80 1015.5
20260507024406 8 12 0.0 0.0 0.00 1.93 1.73 80 1015.5
20260507023906 8 12 0.0 0.0 0.00 1.93 1.73 79 1015.4
20260507023405 8 12 0.0 0.0 0.00 1.96 1.73 79 1015.5
20260507022906 9 12 0.0 0.0 0.00 1.98 1.73 78 1015.4
20260507022405 9 12 0.0 0.0 0.00 2.03 1.73 79 1015.4
20260507021906 9 12 0.0 0.0 0.00 2.06 1.73 78 1015.5
20260507021406 9 12 0.0 0.0 0.00 2.06 1.73 78 1015.3
20260507020906 9 12 0.0 0.0 0.00 2.06 1.73 79 1015.2
20260507020405 9 12 0.0 0.0 0.00 2.08 1.73 78 1015.2
20260507015906 9 12 0.0 0.0 0.00 2.13 1.73 78 1015.1
20260507013905 9 12 0.0 0.0 0.00 2.24 1.73 77 1015.0
20260507013405 9 12 0.0 0.0 0.00 2.24 1.73 77 1014.8
20260507012906 9 12 0.0 0.0 0.00 2.24 1.73 77 1014.8
20260507012405 9 12 0.0 0.0 0.00 2.24 1.73 77 1014.8
20260507011905 10 12 0.0 0.0 0.00 2.24 1.73 76 1014.6
20260507011405 10 12 0.0 0.0 0.00 2.26 1.73 76 1014.7
20260507010905 10 12 0.0 0.0 0.00 2.29 1.73 76 1014.7
20260507010405 10 12 0.0 0.0 0.00 2.34 1.73 75 1014.7
20260507005406 10 12 0.0 0.0 0.00 2.49 1.73 74 1014.8
20260507004905 11 12 0.0 0.0 0.00 2.54 1.73 73 1014.7
20260507004406 11 12 0.0 0.0 0.00 2.59 1.73 72 1014.8
20260507003406 11 12 0.0 0.0 0.00 2.59 1.73 70 1014.6
20260507002905 12 12 0.0 0.0 0.00 2.59 1.73 68 1014.5
20260507002405 12 12 0.0 0.0 0.00 2.62 1.73 67 1014.5
20260507001905 12 12 0.0 0.0 0.00 2.62 1.73 67 1014.4
20260507001405 12 12 0.0 0.0 0.00 2.64 1.73 65 1014.3
20260507000905 12 12 0.0 0.0 0.00 2.64 1.73 64 1014.2
20260507000406 12 13 0.0 3.2 0.00 2.64 1.73 64 1014.2
20260506235905 12 330 0.0 1.6 0.00 2.67 1.73 64 1014.3
20260506235406 12 335 0.0 3.2 0.00 2.67 1.73 63 1014.1
20260506234905 12 351 1.6 4.8 0.00 2.69 1.73 61 1014.1
20260506234405 13 356 1.6 4.8 0.00 2.69 1.73 62 1014.2
20260506233405 13 341 1.6 4.8 0.00 2.69 1.73 60 1014.1
20260506232905 13 318 3.2 8.0 0.00 2.72 1.73 59 1014.1
20260506231405 14 335 1.6 4.8 0.00 2.74 1.73 59 1013.8
20260506230905 14 352 1.6 4.8 0.00 2.74 1.73 59 1013.9
20260506230405 14 332 3.2 4.8 0.00 2.74 1.73 60 1013.9
20260506225905 14 355 1.6 4.8 0.00 2.74 1.73 60 1013.9
20260506225405 13 348 3.2 11.3 0.00 2.74 1.73 59 1014.1
20260506224905 13 334 4.8 11.3 0.00 2.74 1.73 60 1014.0
20260506224405 13 18 1.6 4.8 0.00 2.74 1.73 61 1014.0
20260506223905 13 4 1.6 8.0 0.00 2.74 1.73 61 1014.0
20260506223405 13 327 1.6 4.8 0.00 2.74 1.73 61 1014.2
20260506222405 13 351 1.6 4.8 0.00 2.74 1.73 60 1014.2
20260506221905 13 344 1.6 4.8 0.00 2.74 1.73 60 1014.2
20260506221405 13 344 0.0 4.8 0.00 2.74 1.73 59 1014.3
20260506220405 13 344 1.6 4.8 0.00 2.77 1.73 56 1014.4
20260506215405 13 323 1.6 4.8 0.00 2.77 1.73 58 1014.3
20260506214905 13 311 3.2 4.8 0.00 2.77 1.73 59 1014.4
20260506214404 13 354 1.6 4.8 0.00 2.79 1.73 59 1014.3
20260506213405 13 339 3.2 8.0 0.00 2.79 1.73 58 1014.3
20260506212905 13 343 1.6 4.8 0.00 2.82 1.73 58 1014.2
20260506212405 13 327 1.6 8.0 0.00 2.84 1.73 59 1014.2
20260506211905 13 340 4.8 11.3 0.00 2.84 1.73 57 1014.1
20260506211405 14 326 1.6 4.8 0.00 2.84 1.73 59 1013.9
20260506210905 14 328 3.2 8.0 0.00 2.87 1.73 58 1013.9
20260506205905 13 335 1.6 4.8 0.00 2.87 1.73 59 1013.8
20260506205405 13 335 3.2 8.0 0.00 2.87 1.73 58 1013.8
20260506204405 13 354 1.6 8.0 0.00 2.87 1.73 58 1013.8
20260506203405 14 45 1.6 4.8 0.00 2.87 1.73 60 1014.0
20260506202904 13 332 1.6 4.8 0.00 2.87 1.73 60 1013.9
20260506202405 13 330 1.6 8.0 0.00 2.90 1.73 58 1013.9
20260506201904 13 21 3.2 4.8 0.00 2.90 1.73 60 1013.9
20260506201404 14 20 0.0 4.8 0.00 2.90 1.73 59 1013.8
20260506200905 13 313 0.0 4.8 0.00 2.92 1.73 59 1013.9
20260506194905 14 357 3.2 4.8 0.00 2.97 1.73 57 1013.8
20260506194404 14 335 1.6 4.8 0.00 3.00 1.73 58 1013.8
20260506193905 14 344 4.8 12.9 0.00 3.02 1.73 56 1013.8
20260506193404 14 332 3.2 12.9 0.00 3.20 1.73 57 1013.5
20260506192404 15 339 4.8 11.3 0.00 3.58 1.73 54 1013.5
20260506191905 15 306 1.6 8.0 0.00 3.68 1.73 56 1013.5
20260506191404 15 350 3.2 9.7 0.00 3.73 1.73 56 1013.5
20260506190904 15 333 3.2 8.0 0.00 3.73 1.73 58 1013.5
20260506190404 15 4 4.8 9.7 0.00 3.73 1.73 57 1013.5
20260506185905 15 356 6.4 12.9 0.00 3.73 1.73 56 1013.4
20260506185404 15 4 3.2 9.7 0.00 3.73 1.73 57 1013.4
20260506184905 15 338 6.4 11.3 0.00 3.73 1.73 57 1013.5
20260506184404 15 291 3.2 8.0 0.00 3.73 1.73 57 1013.4
20260506183905 15 350 3.2 8.0 0.00 3.73 1.73 56 1013.3
20260506183404 15 339 3.2 9.7 0.00 3.73 1.73 56 1013.2
20260506182405 16 62 0.0 4.8 0.00 3.73 1.73 59 1013.3
20260506181404 15 33 3.2 4.8 0.00 3.73 1.73 58 1013.3
20260506180404 15 325 1.6 4.8 0.00 3.73 1.73 60 1013.5
20260506175904 15 10 4.8 14.5 0.00 3.73 1.73 58 1013.4
20260506175404 15 101 3.2 4.8 0.00 3.73 1.73 59 1013.5
20260506174405 15 293 3.2 12.9 0.00 3.73 1.73 59 1013.7
20260506173404 15 225 1.6 4.8 0.00 3.73 1.73 60 1013.8
20260506172404 15 345 3.2 9.7 0.00 3.73 1.73 59 1013.5
20260506171904 15 313 4.8 12.9 0.00 3.73 1.73 57 1013.6
20260506170904 14 286 1.6 16.1 0.00 3.73 1.73 65 1013.8
20260506170404 14 0 1.6 12.9 0.00 3.73 1.73 61 1013.8
20260506164904 13 346 3.2 11.3 0.00 3.73 1.73 62 1014.0
20260506164405 13 341 1.6 11.3 0.00 3.73 1.73 62 1013.9
20260506163904 13 323 3.2 9.7 0.00 3.73 1.73 63 1013.8
20260506163404 13 311 3.2 12.9 0.00 3.73 1.73 62 1013.9
20260506162904 13 326 3.2 11.3 0.00 3.73 1.73 63 1014.0
20260506162404 13 268 1.6 9.7 0.00 3.73 1.73 65 1013.9
20260506161404 13 316 4.8 12.9 0.00 3.73 1.73 64 1013.8
20260506160404 13 262 1.6 4.8 0.00 3.73 1.73 67 1013.7
20260506155903 13 339 3.2 16.1 0.00 3.73 1.73 68 1013.7
20260506155405 13 349 3.2 4.8 0.00 3.73 1.73 67 1013.6
20260506154404 12 356 1.6 8.0 0.00 3.73 1.73 65 1013.5
20260506153404 12 2 1.6 8.0 0.00 3.73 1.73 66 1013.8
20260506152904 12 340 3.2 9.7 0.00 3.73 1.73 67 1013.9
20260506152404 12 345 3.2 8.0 0.00 3.73 1.73 67 1014.0
20260506151904 12 20 1.6 4.8 0.00 3.73 1.73 71 1014.0
20260506151404 12 339 1.6 8.0 0.00 3.73 1.73 69 1013.7
20260506150904 12 337 0.0 3.2 0.00 3.73 1.73 72 1013.4
20260506145404 11 320 3.2 12.9 0.00 3.73 1.73 70 1013.1
20260506144904 11 353 1.6 8.0 0.00 3.73 1.73 75 1012.9
20260506144404 11 321 1.6 8.0 0.00 3.73 1.73 76 1012.8
20260506143904 10 350 3.2 12.9 0.00 3.73 1.73 77 1012.7
20260506143404 10 341 3.2 8.0 0.00 3.73 1.73 79 1012.6
20260506142904 10 352 4.8 12.9 0.00 3.73 1.73 81 1012.6
20260506142403 10 347 3.2 8.0 0.00 3.73 1.73 81 1012.4
20260506141403 10 9 1.6 4.8 0.00 3.73 1.73 83 1012.8
20260506140903 9 327 3.2 8.0 0.00 3.73 1.73 84 1012.7